Weather History for Whiteman AFB, MO

Change the Weather History Date:

Sunday, November 10, 2013

  Actual Average Record
Temperature  
Mean Temperature 47 °F -  
Max Temperature 57 °F 53 °F 75 °F (2012)
Min Temperature 37 °F 37 °F 26 °F (1996)
Degree Days  
Heating Degree Days 18    
Moisture  
Dew Point 31 °F    
Average Humidity 52    
Maximum Humidity 80    
Minimum Humidity 33    
Precipitation  
Precipitation 0.00 in - - ()
Sea Level Pressure  
Sea Level Pressure 30.33 in    
Wind  
Wind Speed 5 mph (SE)    
Max Wind Speed 10 mph    
Max Gust Speed -    
Visibility 6 miles    
Events      
Averages and records for this station are not official NWS values.
T = Trace of Precipitation, MM = Missing Value Source: NWS Daily Summary

Daily Weather History Graph

Daily Weather History Graph

Search for Another Location

Airport:

Trip Planner

Search our weather history database for the weather conditions in past years. The results will help you decide how hot, cold, wet, or windy it might be!

Date:

Astronomy

Nov. 10, 2013 Rise Set
Actual Time 6:51 AM CST 5:04 PM CST
Civil Twilight 6:23 AM CST 5:32 PM CST
Nautical Twilight 5:51 AM CST 6:04 PM CST
Astronomical Twilight 5:19 AM CST 6:35 PM CST
Moon 1:06 PM CST (11/10) No Moon Set
Length of Visible Light 11h 09m
Length of Day
10h 13m
First Quarter, 56% of the Moon is Illuminated
Nov 10
First Quarter
Nov 17
Full
Nov 25
Last Quarter
Dec 2
New
Dec 9
First Quarter

Hourly Weather History & Observations

Time (CST) Temp. Windchill Dew Point Humidity Pressure Visibility Wind Dir Wind Speed Gust Speed Precip Events Conditions
12:58 AM 42.1 °F 37.1 °F 33.3 °F 71% 30.32 in 10.0 mi NNE 8.1 mph - N/A   Clear
1:58 AM 41.9 °F 35.9 °F 34.7 °F 76% 30.34 in 10.0 mi North 10.4 mph - N/A   Clear
2:58 AM 38.8 °F 33.8 °F 33.1 °F 80% 30.35 in 10.0 mi NNE 6.9 mph - N/A   Clear
3:58 AM 39.6 °F 36.3 °F 32.5 °F 76% 30.37 in 10.0 mi NE 4.6 mph - N/A   Clear
4:58 AM 39.4 °F 35.2 °F 33.1 °F 78% 30.38 in 10.0 mi NE 5.8 mph - N/A   Clear
5:58 AM 37.8 °F 33.3 °F 31.8 °F 79% 30.40 in 10.0 mi NE 5.8 mph - N/A   Clear
6:58 AM 38.1 °F 35.7 °F 30.7 °F 75% 30.43 in 10.0 mi NE 3.5 mph - N/A   Clear
7:58 AM 40.6 °F 37.5 °F 31.8 °F 71% 30.44 in 10.0 mi NE 4.6 mph - N/A   Clear
8:58 AM 44.1 °F 39.0 °F 32.0 °F 63% 30.45 in 10.0 mi ENE 9.2 mph - N/A   Clear
9:58 AM 47.1 °F - 30.7 °F 53% 30.44 in 10.0 mi ENE 8.1 mph - N/A   Clear
10:58 AM 50.4 °F - 29.5 °F 45% 30.44 in 10.0 mi Variable 4.6 mph - N/A   Clear
11:58 AM 52.9 °F - 29.7 °F 41% 30.41 in 10.0 mi ESE 4.6 mph - N/A   Clear
12:58 PM 55.9 °F - 27.1 °F 33% 30.38 in 10.0 mi ESE 3.5 mph - N/A   Clear
1:58 PM 57.2 °F - 28.4 °F 33% 30.36 in 10.0 mi ESE 4.6 mph - N/A   Clear
2:58 PM 57.9 °F - 28.6 °F 33% 30.34 in 3.0 mi South 3.5 mph - N/A   Haze
3:53 PM 57.2 °F - 28.4 °F 33% 30.31 in 1.8 mi South 5.8 mph - N/A   Haze
3:58 PM 57.4 °F - 29.8 °F 35% 30.33 in 2.0 mi SSW 5.8 mph - N/A   Haze
4:03 PM 55.4 °F - 32.0 °F 41% 30.31 in 3.0 mi South 4.6 mph - N/A   Haze
4:33 PM 53.6 °F - 28.4 °F 38% 30.30 in 2.5 mi SSE 3.5 mph - N/A   Haze
4:58 PM 54.9 °F - 27.7 °F 35% 30.31 in 4.0 mi South 2.3 mph - N/A   Haze
5:13 PM 53.6 °F - 32.0 °F 44% 30.29 in 2.0 mi SSE 2.3 mph - N/A   Haze
5:18 PM 53.6 °F - 32.0 °F 44% 30.29 in 1.8 mi SSE 2.3 mph - N/A   Haze
5:28 PM 51.8 °F - 33.8 °F 50% 30.29 in 2.0 mi Calm Calm - N/A   Haze
5:33 PM 51.8 °F - 32.0 °F 47% 30.29 in 2.5 mi Calm Calm - N/A   Haze
5:43 PM 51.8 °F - 32.0 °F 47% 30.29 in 3.0 mi Calm Calm - N/A   Haze
5:48 PM 50.0 °F - 32.0 °F 50% 30.29 in 2.5 mi Calm Calm - N/A   Haze
5:58 PM 49.6 °F - 32.0 °F 51% 30.31 in 2.5 mi ESE 2.3 mph - N/A   Haze
6:38 PM 50.0 °F - 28.4 °F 43% 30.29 in 1.5 mi ESE 4.6 mph - N/A   Haze
6:48 PM 50.0 °F - 30.2 °F 47% 30.28 in 5.0 mi ESE 4.6 mph - N/A   Haze
6:58 PM 50.5 °F - 29.5 °F 44% 30.30 in 5.0 mi ESE 4.6 mph - N/A   Haze
7:58 PM 47.1 °F - 33.1 °F 58% 30.30 in 10.0 mi South 2.3 mph - N/A   Mostly Cloudy
8:03 PM 48.2 °F - 33.8 °F 58% 30.27 in 9.0 mi SSE 3.5 mph - N/A   Mostly Cloudy
8:58 PM 48.9 °F - 30.6 °F 49% 30.28 in 7.0 mi SSE 3.5 mph - N/A   Scattered Clouds
9:58 PM 48.6 °F - 33.3 °F 56% 30.28 in 7.0 mi South 4.6 mph - N/A   Mostly Cloudy
10:58 PM 47.8 °F - 32.5 °F 55% 30.26 in 7.0 mi South 5.8 mph - N/A   Scattered Clouds
11:58 PM 50.0 °F - 35.2 °F 57% 30.25 in 8.0 mi SSW 5.8 mph - N/A   Overcast